| time (UTC) | temp F | wind direction | speed MPH | gust MPH | rain 1hr in | rain 24hr in | rain mn in | humidity % | barometer mb |
| 20260505023054 | 71 | 286 | 0.0 | 1.0 | 0.00 | 0.00 | 0.00 | 57 | 1008.9 |
| 20260505021609 | 72 | 275 | 0.0 | 3.0 | 0.00 | 0.00 | 0.00 | 56 | 1008.8 |
| 20260505020054 | 73 | 0 | 0.0 | 2.0 | 0.00 | 0.00 | 0.00 | 56 | 1008.7 |
| 20260505014554 | 73 | 302 | 0.0 | 4.0 | 0.00 | 0.00 | 0.00 | 53 | 1008.7 |
| 20260505013056 | 76 | 294 | 1.0 | 4.0 | 0.00 | 0.00 | 0.00 | 50 | 1008.6 |
| 20260505011558 | 76 | 213 | 0.0 | 3.0 | 0.00 | 0.00 | 0.00 | 52 | 1008.6 |
| 20260505010054 | 76 | 293 | 1.0 | 6.0 | 0.00 | 0.00 | 0.00 | 47 | 1008.7 |
| 20260505004559 | 77 | 290 | 1.0 | 7.0 | 0.00 | 0.00 | 0.00 | 47 | 1008.7 |
| 20260505003056 | 77 | 242 | 0.0 | 4.0 | 0.00 | 0.00 | 0.00 | 50 | 1008.8 |
| 20260505001553 | 77 | 284 | 2.0 | 7.0 | 0.00 | 0.00 | 0.00 | 50 | 1008.8 |
| 20260505000057 | 77 | 288 | 2.0 | 5.0 | 0.00 | 0.00 | 0.00 | 49 | 1008.9 |
| 20260504234553 | 78 | 183 | 1.0 | 5.0 | 0.00 | 0.00 | 0.00 | 49 | 1009.0 |
| 20260504233100 | 78 | 240 | 0.0 | 5.0 | 0.00 | 0.00 | 0.00 | 47 | 1009.1 |
| 20260504231554 | 77 | 225 | 1.0 | 6.0 | 0.00 | 0.00 | 0.00 | 48 | 1009.2 |
| 20260504230056 | 77 | 147 | 2.0 | 6.0 | 0.00 | 0.00 | 0.00 | 46 | 1009.1 |
| 20260504224556 | 77 | 261 | 1.0 | 6.0 | 0.00 | 0.00 | 0.00 | 48 | 1009.3 |
| 20260504223102 | 77 | 262 | 2.0 | 7.0 | 0.00 | 0.00 | 0.00 | 47 | 1009.3 |
| 20260504221606 | 77 | 254 | 1.0 | 9.0 | 0.00 | 0.00 | 0.00 | 48 | 1009.5 |
| 20260504220135 | 76 | 221 | 4.0 | 8.0 | 0.00 | 0.00 | 0.00 | 44 | 1009.7 |
| 20260504214554 | 76 | 244 | 2.0 | 7.0 | 0.00 | 0.00 | 0.00 | 46 | 1009.8 |
| 20260504213123 | 76 | 279 | 2.0 | 7.0 | 0.00 | 0.00 | 0.00 | 47 | 1009.8 |
| 20260504211554 | 75 | 0 | 3.0 | 8.0 | 0.00 | 0.00 | 0.00 | 48 | 1009.9 |
| 20260504210100 | 75 | 254 | 1.0 | 7.0 | 0.00 | 0.00 | 0.00 | 51 | 1010.1 |
| 20260504204604 | 74 | 273 | 3.0 | 8.0 | 0.00 | 0.00 | 0.00 | 51 | 1010.0 |
| 20260504203054 | 74 | 309 | 1.0 | 7.0 | 0.00 | 0.00 | 0.00 | 53 | 1010.2 |
| 20260504201553 | 73 | 247 | 2.0 | 8.0 | 0.00 | 0.00 | 0.00 | 54 | 1010.1 |
| 20260504194555 | 72 | 277 | 2.0 | 5.0 | 0.00 | 0.00 | 0.00 | 55 | 1010.3 |
| 20260504193059 | 72 | 175 | 2.0 | 5.0 | 0.00 | 0.00 | 0.00 | 57 | 1010.4 |
| 20260504191552 | 71 | 298 | 2.0 | 4.0 | 0.00 | 0.00 | 0.00 | 57 | 1010.3 |
| 20260504190054 | 71 | 285 | 1.0 | 3.0 | 0.00 | 0.00 | 0.00 | 56 | 1010.4 |
| 20260504184558 | 71 | 0 | 0.0 | 4.0 | 0.00 | 0.00 | 0.00 | 55 | 1010.4 |
| 20260504183056 | 70 | 254 | 2.0 | 7.0 | 0.00 | 0.00 | 0.00 | 55 | 1010.4 |
| 20260504181604 | 70 | 313 | 1.0 | 7.0 | 0.00 | 0.00 | 0.00 | 56 | 1010.6 |
| 20260504180056 | 69 | 243 | 2.0 | 4.0 | 0.00 | 0.00 | 0.00 | 58 | 1010.4 |
| 20260504174553 | 69 | 267 | 0.0 | 4.0 | 0.00 | 0.00 | 0.00 | 59 | 1010.3 |
| 20260504173059 | 68 | 296 | 0.0 | 4.0 | 0.00 | 0.00 | 0.00 | 60 | 1010.2 |
| 20260504171558 | 68 | 0 | 1.0 | 5.0 | 0.00 | 0.00 | 0.00 | 66 | 1010.4 |
| 20260504100104 | 55 | 0 | 0.0 | 0.0 | 0.00 | 0.00 | 0.00 | 80 | 1008.9 |
| 20260504081553 | 57 | 0 | 0.0 | 1.0 | 0.00 | 0.00 | 0.00 | 74 | 1008.8 |
| 20260504044551 | 66 | 0 | 0.0 | 1.0 | 0.00 | 0.00 | 0.00 | 59 | 1009.0 |
| 20260504043057 | 66 | 0 | 0.0 | 1.0 | 0.00 | 0.00 | 0.00 | 59 | 1008.9 |
| 20260504041553 | 66 | 0 | 0.0 | 0.0 | 0.00 | 0.00 | 0.00 | 59 | 1008.9 |
| 20260504040055 | 67 | 0 | 0.0 | 1.0 | 0.00 | 0.00 | 0.00 | 60 | 1008.8 |
| 20260504034552 | 69 | 340 | 0.0 | 0.0 | 0.00 | 0.00 | 0.00 | 58 | 1008.8 |
| 20260504033054 | 71 | 291 | 0.0 | 2.0 | 0.00 | 0.00 | 0.00 | 53 | 1008.7 |
| 20260504031553 | 73 | 265 | 0.0 | 3.0 | 0.00 | 0.00 | 0.00 | 49 | 1008.7 |
| 20260504030053 | 75 | 295 | 0.0 | 4.0 | 0.00 | 0.00 | 0.00 | 43 | 1008.7 |
| 20260504024555 | 76 | 296 | 1.0 | 4.0 | 0.00 | 0.00 | 0.00 | 43 | 1008.7 |